map of OSS home
Great Circle Mapper logo
OSS - Airport
Location
City:  Osh, Kyrgyzstan
Name:Osh International Airport
ICAO / IATA:UCFO / OSS

Details
Type:Airport (Aerodrome, Airfield)
Use:Public/Civil, International (customs port of entry)
Latitude:4036'32"N (40.608989)
Longitude:7247'36"E (72.793269)
Elevation:2927 ft (892 m)
Variation:4.62E (WMM2015 magnetic declination)
0.05 annual change
Runways:1
Longest:8576 × 164 ft (2614 × 50 m), paved

Time
Time Zone:UTC+5 (DST+6)

Weather
METAR:UCFO 012030Z 00000MPS 3600 BR OVC006 M02/M02 Q1024 R12/29//50 NOSIG
TAF:UCFO 011700Z 0118/0218 17005MPS 0800 FZFG OVC004
TEMPO 0118/0124 0200 SN FZFG VV001
BECMG 0205/0207 27005MPS 1500 BR FU

Related Locations
Nearby:
Farthest:IPC: 11495 mi / 18499 km
Easter Island (Isla de Pascua, Rapa Nui) [Mataveri Intl], VS, CL

Find:

   beyond  
but within

Other Information
Maps:
NOTAMs:
Links:
Sources:

  
flag of Kyrgyzstan   

Sectional Chart

Flight Planning
at skyvector.com

Satellite Image

Google Maps Satellite View

 

Copyright © 2004-2015 Karl L. Swartz. All rights reserved.
The Great Circle Mapper name and logo are trademarks of the Great Circle Mapper.
All other trademarks mentioned herein belong to their respective owners.
Please see credits for attibutions and further copyright information.

  Follow gcmap on Facebook Follow gcmap on Twitter

hCard Microformat

Geo Microformat